Weather History for Buffalo, NY

Change the Weather History Date:

Sunday, November 13, 2011

  Actual Average Record
Temperature  
Mean Temperature 57 °F 42 °F  
Max Temperature 64 °F 49 °F 68 °F (1989)
Min Temperature 50 °F 35 °F 16 °F (1986)
Degree Days  
Heating Degree Days 8 23  
Month to date heating degree days 212 277  
Since 1 July heating degree days 683 882  
Cooling Degree Days 0 0  
Month to date cooling degree days 0 0  
Year to date cooling degree days 776 544  
Growing Degree Days 7 (Base 50)    
Moisture  
Dew Point 36 °F    
Average Humidity 45    
Maximum Humidity 52    
Minimum Humidity 37    
Precipitation  
Precipitation 0.00 in 0.14 in 0.81 in (1937)
Month to date precipitation 0.36 1.70  
Year to date precipitation 43.20 34.28  
Snow  
Snow 0.00 in 0.20 in 7.00 in (1986)
Month to date snowfall T 2.1  
Since 1 July snowfall T 3.0  
Since 1 September snowfall T 3.0  
Snow Depth 0.00 in    
Sea Level Pressure  
Sea Level Pressure 29.76 in    
Wind  
Wind Speed 17 mph (SSW)    
Max Wind Speed 28 mph    
Max Gust Speed 37 mph    
Visibility 10 miles    
Events      
T = Trace of Precipitation, MM = Missing Value Source: NWS Daily Summary

Daily Weather History Graph

Daily Weather History Graph

Search for Another Location

Airport:

Trip Planner

Search our weather history database for the weather conditions in past years. The results will help you decide how hot, cold, wet, or windy it might be!

Date:

Astronomy

Nov. 13, 2011 Rise Set
Actual Time 7:04 AM EST 4:53 PM EST
Civil Twilight 6:33 AM EST 5:23 PM EST
Nautical Twilight 5:59 AM EST 5:58 PM EST
Astronomical Twilight 5:26 AM EST 6:31 PM EST
Moon 6:58 PM EST (11/13) 9:38 AM EST (11/13)
Length of Visible Light 10h 50m
Length of Day
9h 49m
Waning Gibbous, 93% of the Moon is Illuminated
Nov 13
Waning Gibbous
Nov 18
Last Quarter
Nov 25
New
Dec 2
First Quarter
Dec 10
Full

Hourly Weather History & Observations

Time (EST) Temp. Dew Point Humidity Pressure Visibility Wind Dir Wind Speed Gust Speed Precip Events Conditions
12:54 AM 51.1 °F 32.0 °F 48% 29.91 in 10.0 mi SSW 15.0 mph - N/A   Overcast
1:54 AM 51.1 °F 30.9 °F 46% 29.91 in 10.0 mi SSW 11.5 mph - N/A   Overcast
2:54 AM 51.8 °F 30.2 °F 44% 29.89 in 10.0 mi SSW 12.7 mph - N/A   Overcast
3:54 AM 53.1 °F 30.0 °F 41% 29.88 in 10.0 mi SSW 13.8 mph - N/A   Overcast
4:54 AM 52.0 °F 30.0 °F 43% 29.87 in 10.0 mi SSW 13.8 mph - N/A   Overcast
5:54 AM 52.0 °F 28.9 °F 41% 29.87 in 10.0 mi SSW 15.0 mph - N/A   Mostly Cloudy
6:54 AM 52.0 °F 28.9 °F 41% 29.85 in 10.0 mi SSW 13.8 mph - N/A   Mostly Cloudy
7:54 AM 53.1 °F 30.0 °F 41% 29.85 in 10.0 mi SSW 13.8 mph 24.2 mph N/A   Mostly Cloudy
8:54 AM 55.0 °F 32.0 °F 42% 29.83 in 10.0 mi SSW 18.4 mph 24.2 mph N/A   Mostly Cloudy
9:54 AM 55.9 °F 32.0 °F 40% 29.82 in 10.0 mi SSW 21.9 mph 27.6 mph N/A   Mostly Cloudy
10:54 AM 59.0 °F 34.0 °F 39% 29.79 in 10.0 mi SSW 21.9 mph 29.9 mph N/A   Overcast
11:54 AM 59.0 °F 35.1 °F 41% 29.77 in 10.0 mi SSW 15.0 mph 24.2 mph N/A   Overcast
12:54 PM 60.1 °F 36.0 °F 41% 29.74 in 10.0 mi SSW 15.0 mph - N/A   Overcast
1:54 PM 61.0 °F 37.9 °F 42% 29.69 in 10.0 mi SSW 18.4 mph 26.5 mph N/A   Overcast
2:54 PM 61.0 °F 37.9 °F 42% 29.68 in 10.0 mi SSW 19.6 mph 28.8 mph N/A   Overcast
3:54 PM 61.0 °F 39.0 °F 44% 29.68 in 10.0 mi SSW 16.1 mph 26.5 mph N/A   Overcast
4:54 PM 60.8 °F 39.2 °F 45% 29.68 in 10.0 mi SSW 17.3 mph - N/A   Overcast
5:54 PM 61.0 °F 41.0 °F 48% 29.68 in 10.0 mi SSW 18.4 mph 25.3 mph N/A   Overcast
6:54 PM 61.0 °F 42.1 °F 50% 29.68 in 10.0 mi SSW 16.1 mph - N/A   Overcast
7:54 PM 63.0 °F 43.0 °F 48% 29.67 in 10.0 mi SSW 23.0 mph 31.1 mph N/A   Overcast
8:54 PM 63.0 °F 44.1 °F 50% 29.65 in 10.0 mi SW 23.0 mph 36.8 mph N/A   Overcast
9:54 PM 62.1 °F 44.1 °F 52% 29.63 in 10.0 mi SSW 23.0 mph 34.5 mph N/A   Overcast
10:54 PM 63.0 °F 45.0 °F 52% 29.62 in 10.0 mi SSW 21.9 mph 31.1 mph N/A   Overcast
11:54 PM 64.0 °F 45.0 °F 50% 29.62 in 10.0 mi SSW 20.7 mph 28.8 mph N/A   Overcast